Newport News, VA

10:52 PM EST on December 09, 2016 (GMT -0500)
Newport News-Williamsburg International

Weather History for KPHF - April, 2013

Change the Weather History Date:

Thursday, April 18, 2013

  Actual Average Record
Temperature  
Mean Temperature 72 °F -  
Max Temperature 82 °F 72 °F 89 °F (1963)
Min Temperature 62 °F 49 °F 30 °F (2001)
Cooling Degree Days 7    
Growing Degree Days 22 (Base 50)    
Moisture  
Dew Point 57 °F    
Average Humidity 60    
Maximum Humidity 84    
Minimum Humidity 38    
Precipitation  
Precipitation 0.00 in - - ()
Sea Level Pressure  
Sea Level Pressure 30.16 in    
Wind  
Wind Speed 7 mph (SSE)    
Max Wind Speed 17 mph    
Max Gust Speed 24 mph    
Visibility 10 miles    
Events      
Averages and records for this station are not official NWS values.
T = Trace of Precipitation, MM = Missing Value Source: NWS Daily Summary

Daily Weather History Graph

Daily Weather History Graph

Search for Another Location

Airport or City:

Trip Planner

Search our weather history database for the weather conditions in past years. The results will help you decide how hot, cold, wet, or windy it might be!

Date:

Astronomy

Apr. 18, 2013 Rise Set
Actual Time 6:27 AM EDT 7:43 PM EDT
Civil Twilight 6:00 AM EDT 8:10 PM EDT
Nautical Twilight 5:27 AM EDT 8:43 PM EDT
Astronomical Twilight 4:54 AM EDT 9:17 PM EDT
Moon 12:38 PM EDT (4/18) 1:55 AM EDT (4/18)
Length of Visible Light 14h 10m
Length of Day
13h 16m
First Quarter, 51% of the Moon is Illuminated
Apr 18
First Quarter
Apr 25
Full
May 2
Last Quarter
May 9
New
May 18
First Quarter

Hourly Weather History & Observations

Time (EDT) Temp. Heat Index Dew Point Humidity Pressure Visibility Wind Dir Wind Speed Gust Speed Precip Events Conditions
12:54 AM 64.9 °F - 57.0 °F 75% 30.20 in 10.0 mi ESE 4.6 mph - N/A   Overcast
1:54 AM 64.9 °F - 55.9 °F 73% 30.19 in 10.0 mi Calm Calm - N/A   Overcast
2:54 AM 64.9 °F - 57.0 °F 75% 30.18 in 10.0 mi East 3.5 mph - N/A   Overcast
3:54 AM 66.0 °F - 57.9 °F 75% 30.19 in 10.0 mi East 3.5 mph - N/A   Overcast
4:54 AM 64.9 °F - 57.0 °F 75% 30.19 in 10.0 mi ESE 4.6 mph - N/A   Overcast
5:54 AM 64.0 °F - 57.0 °F 78% 30.19 in 10.0 mi SE 3.5 mph - N/A   Overcast
6:54 AM 62.1 °F - 57.0 °F 84% 30.21 in 7.0 mi Calm Calm - N/A   Clear
7:54 AM 66.0 °F - 59.0 °F 78% 30.22 in 10.0 mi Calm Calm - N/A   Overcast
8:54 AM 69.1 °F - 59.0 °F 70% 30.23 in 10.0 mi SSE 8.1 mph - N/A   Overcast
9:54 AM 73.9 °F - 59.0 °F 59% 30.24 in 10.0 mi South 12.7 mph - N/A   Partly Cloudy
10:54 AM 75.9 °F - 59.0 °F 56% 30.24 in 10.0 mi SSW 11.5 mph - N/A   Partly Cloudy
11:54 AM 77.0 °F - 57.0 °F 50% 30.21 in 10.0 mi South 8.1 mph 16.1 mph N/A   Scattered Clouds
12:54 PM 79.0 °F - 57.0 °F 47% 30.19 in 10.0 mi South 12.7 mph 18.4 mph N/A   Mostly Cloudy
1:54 PM 80.6 °F 80.5 °F 55.4 °F 42% 30.17 in 10.0 mi South 16.1 mph 20.7 mph N/A   Overcast
2:54 PM 82.0 °F 81.3 °F 54.0 °F 38% 30.16 in 10.0 mi South 11.5 mph - N/A   Clear
3:54 PM 82.0 °F 81.3 °F 54.0 °F 38% 30.13 in 10.0 mi SSE 16.1 mph 21.9 mph N/A   Partly Cloudy
4:54 PM 82.0 °F 81.4 °F 55.0 °F 39% 30.11 in 10.0 mi South 15.0 mph 21.9 mph N/A   Clear
5:54 PM 79.0 °F - 55.0 °F 44% 30.10 in 10.0 mi South 17.3 mph 24.2 mph N/A   Clear
6:54 PM 78.1 °F - 55.0 °F 45% 30.09 in 10.0 mi South 11.5 mph 17.3 mph N/A   Clear
7:54 PM 75.0 °F - 55.0 °F 50% 30.09 in 10.0 mi SSE 11.5 mph 18.4 mph N/A   Clear
8:54 PM 72.0 °F - 57.0 °F 59% 30.10 in 10.0 mi SSE 8.1 mph - N/A   Clear
9:54 PM 71.1 °F - 55.9 °F 59% 30.11 in 10.0 mi SSE 6.9 mph - N/A   Clear
10:54 PM 70.0 °F - 55.9 °F 61% 30.09 in 10.0 mi South 13.8 mph - N/A   Clear
11:54 PM 69.1 °F - 57.0 °F 65% 30.07 in 10.0 mi South 11.5 mph - N/A   Clear